KX4O-13 Weather Reports


Display with metric or nautical units.
time (UTC)temp
F
wind
direction
speed
MPH
gust
MPH
rain 1hr
in
rain 24hr
in
rain mn
in
humidity
%
barometer
mb
20260510033545 53 355 0.0 0.0 0.00 0.00 0.00 88 1010.0
20260510033047 53 355 1.0 2.0 0.00 0.00 0.00 88 1009.9
20260510032545 54 355 1.0 2.0 0.00 0.00 0.00 88 1009.9
20260510032045 54 355 0.0 1.0 0.00 0.00 0.00 89 1009.8
20260510031545 54 355 0.0 2.0 0.00 0.00 0.00 88 1009.8
20260510031047 54 355 1.0 2.0 0.00 0.00 0.00 88 1009.8
20260510030545 55 355 1.0 1.0 0.00 0.00 0.00 87 1009.7
20260510030045 55 355 0.0 2.0 0.00 0.00 0.00 87 1009.8
20260510025545 54 103 0.0 0.0 0.00 0.00 0.00 86 1009.8
20260510025045 55 103 0.0 2.0 0.00 0.00 0.00 86 1009.7
20260510024545 55 103 0.0 0.0 0.00 0.00 0.00 85 1009.8
20260510024045 55 103 0.0 2.0 0.00 0.00 0.00 85 1009.8
20260510023545 55 103 0.0 2.0 0.00 0.00 0.00 85 1009.8
20260510023047 56 103 0.0 1.0 0.00 0.00 0.00 85 1009.6
20260510022545 56 103 0.0 1.0 0.00 0.00 0.00 85 1009.7
20260510022045 55 103 0.0 1.0 0.00 0.00 0.00 85 1009.6
20260510021545 55 103 0.0 1.0 0.00 0.00 0.00 86 1009.6
20260510021045 55 103 0.0 2.0 0.00 0.00 0.00 84 1009.6
20260510020545 56 103 0.0 0.0 0.00 0.00 0.00 84 1009.5
20260510020045 56 103 0.0 0.0 0.00 0.00 0.00 83 1009.4
20260510015545 57 103 0.0 0.0 0.00 0.00 0.00 82 1009.3
20260510015048 57 103 1.0 2.0 0.00 0.00 0.00 81 1009.3
20260510014546 58 103 1.0 1.0 0.00 0.00 0.00 80 1009.1
20260510014046 58 103 0.0 1.0 0.00 0.00 0.00 80 1009.1
20260510013546 58 103 0.0 0.0 0.00 0.00 0.00 80 1009.1
20260510013045 58 103 0.0 0.0 0.00 0.00 0.00 79 1009.0
20260510012546 59 103 0.0 0.0 0.00 0.00 0.00 80 1008.9
20260510012046 58 103 0.0 0.0 0.00 0.00 0.00 79 1008.9
20260510011546 58 103 0.0 2.0 0.00 0.00 0.00 80 1008.8
20260510011048 58 103 0.0 0.0 0.00 0.00 0.00 80 1008.7
20260510010546 58 103 0.0 0.0 0.00 0.00 0.00 79 1008.6
20260510010046 59 103 0.0 0.0 0.00 0.00 0.00 77 1008.4
20260510005546 60 103 0.0 0.0 0.00 0.00 0.00 76 1008.4
20260510005046 60 103 0.0 0.0 0.00 0.00 0.00 75 1008.4
20260510004546 61 103 0.0 0.0 0.00 0.00 0.00 74 1008.3
20260510004046 61 103 0.0 1.0 0.00 0.00 0.00 75 1008.2
20260510003546 61 103 0.0 2.0 0.00 0.00 0.00 75 1008.2
20260510003048 61 103 0.0 0.0 0.00 0.00 0.00 77 1008.2
20260510002546 61 103 0.0 2.0 0.00 0.00 0.00 76 1008.1
20260510002046 61 103 0.0 2.0 0.00 0.00 0.00 74 1008.1
20260510001546 63 350 0.0 2.0 0.00 0.00 0.00 72 1008.1
20260510001046 63 350 0.0 1.0 0.00 0.00 0.00 71 1008.0
20260510000546 64 350 0.0 2.0 0.00 0.00 0.00 70 1008.0
20260510000046 64 350 1.0 1.0 0.00 0.00 0.00 69 1008.0
20260509235546 65 346 0.0 1.0 0.00 0.00 0.00 68 1008.1
20260509235048 65 90 0.0 0.0 0.00 0.00 0.00 68 1007.9
20260509234546 66 184 0.0 0.0 0.00 0.00 0.00 67 1007.8
20260509234046 67 184 0.0 0.0 0.00 0.00 0.00 62 1007.8
20260509233546 68 184 0.0 0.0 0.00 0.00 0.00 62 1007.9
20260509233046 69 184 0.0 2.0 0.00 0.00 0.00 54 1007.8
20260509232546 70 184 0.0 1.0 0.00 0.00 0.00 54 1007.7
20260509232046 71 184 1.0 2.0 0.00 0.00 0.00 50 1007.7
20260509231546 71 182 1.0 2.0 0.00 0.00 0.00 52 1007.6
20260509231048 71 185 1.0 2.0 0.00 0.00 0.00 53 1007.7
20260509230546 72 191 1.0 2.0 0.00 0.00 0.00 50 1007.7
20260509230046 72 177 1.0 3.0 0.00 0.00 0.00 50 1007.8
20260509225546 71 208 1.0 2.0 0.00 0.00 0.00 52 1007.6
20260509225046 71 152 1.0 3.0 0.00 0.00 0.00 54 1007.6
20260509224546 72 171 1.0 2.0 0.00 0.00 0.00 52 1007.7
20260509224046 72 190 1.0 4.0 0.00 0.00 0.00 49 1007.7
20260509223546 72 186 0.0 1.0 0.00 0.00 0.00 54 1007.6
20260509223048 72 155 0.0 2.0 0.00 0.00 0.00 54 1007.7
20260509222546 72 258 0.0 2.0 0.00 0.00 0.00 51 1007.7
20260509222046 73 258 1.0 2.0 0.00 0.00 0.00 50 1007.8
20260509221546 75 250 1.0 2.0 0.00 0.00 0.00 49 1007.7
20260509221048 75 269 0.0 2.0 0.00 0.00 0.00 50 1007.7
20260509220546 72 234 1.0 3.0 0.00 0.00 0.00 50 1007.7
20260509220046 72 250 2.0 3.0 0.00 0.00 0.00 52 1007.7
20260509215546 72 180 2.0 5.0 0.00 0.00 0.00 50 1007.7
20260509215046 73 229 1.0 3.0 0.00 0.00 0.00 49 1007.7
20260509214546 73 236 0.0 3.0 0.00 0.00 0.00 50 1007.6
20260509214046 72 192 0.0 3.0 0.00 0.00 0.00 55 1007.6
20260509213546 72 232 1.0 1.0 0.00 0.00 0.00 51 1007.6
20260509213048 72 185 1.0 3.0 0.00 0.00 0.00 51 1007.5
20260509212546 72 271 1.0 6.0 0.00 0.00 0.00 55 1007.5
20260509212046 72 240 1.0 2.0 0.00 0.00 0.00 53 1007.5
20260509211546 72 248 2.0 5.0 0.00 0.00 0.00 51 1007.4
20260509211046 72 267 1.0 4.0 0.00 0.00 0.00 49 1007.4
20260509210546 72 251 1.0 2.0 0.00 0.00 0.00 52 1007.5
20260509210046 72 211 1.0 2.0 0.00 0.00 0.00 54 1007.4
20260509205546 72 191 1.0 3.0 0.00 0.00 0.00 50 1007.5
20260509205048 72 198 1.0 3.0 0.00 0.00 0.00 48 1007.5
20260509204546 72 191 2.0 5.0 0.00 0.00 0.00 49 1007.5
20260509204046 72 196 1.0 6.0 0.00 0.00 0.00 48 1007.4
20260509203546 72 207 2.0 2.0 0.00 0.00 0.00 50 1007.4
20260509203046 72 246 3.0 7.0 0.00 0.00 0.00 47 1007.4
20260509202546 72 236 3.0 10.0 0.00 0.00 0.00 48 1007.4
20260509202046 73 259 3.0 8.0 0.00 0.00 0.00 44 1007.5
20260509201546 75 190 2.0 18.0 0.00 0.00 0.00 45 1007.5
20260509201048 74 227 2.0 4.0 0.00 0.00 0.00 50 1007.4
20260509200546 74 194 3.0 8.0 0.00 0.00 0.00 47 1007.4
20260509200046 74 232 4.0 8.0 0.00 0.00 0.00 48 1007.6
20260509195546 74 238 5.0 11.0 0.00 0.00 0.00 47 1007.6
20260509195046 74 229 4.0 11.0 0.00 0.00 0.00 48 1007.7
20260509194546 74 164 4.0 9.0 0.00 0.00 0.00 45 1007.8
20260509194046 75 248 4.0 10.0 0.00 0.00 0.00 48 1007.9
20260509193546 74 200 3.0 11.0 0.00 0.00 0.00 48 1008.0
20260509193048 73 237 4.0 7.0 0.00 0.00 0.00 51 1008.1
20260509192546 73 202 3.0 9.0 0.00 0.00 0.00 48 1008.2
20260509192046 75 209 2.0 9.0 0.00 0.00 0.00 51 1008.2
20260509191546 74 202 3.0 8.0 0.00 0.00 0.00 52 1008.2
20260509191046 73 158 3.0 9.0 0.00 0.00 0.00 53 1008.4
20260509190546 73 248 3.0 9.0 0.00 0.00 0.00 52 1008.5
20260509190046 73 269 4.0 9.0 0.00 0.00 0.00 53 1008.6
20260509185546 72 195 5.0 9.0 0.00 0.00 0.00 54 1008.7
20260509185048 73 250 4.0 9.0 0.00 0.00 0.00 53 1008.7
20260509184546 72 168 3.0 7.0 0.00 0.00 0.00 59 1008.7
20260509184046 71 225 3.0 9.0 0.00 0.00 0.00 58 1008.9
20260509183546 70 219 4.0 7.0 0.00 0.00 0.00 56 1008.9
20260509183046 70 223 4.0 11.0 0.00 0.00 0.00 58 1008.8
20260509182546 69 197 4.0 13.0 0.00 0.00 0.00 57 1008.9
20260509182046 70 234 5.0 11.0 0.00 0.00 0.00 58 1008.9
20260509181546 69 190 3.0 11.0 0.00 0.00 0.00 56 1009.0
20260509181048 69 184 2.0 7.0 0.00 0.00 0.00 59 1009.1
20260509180546 69 265 2.0 4.0 0.00 0.00 0.00 59 1009.2
20260509180046 68 261 3.0 5.0 0.00 0.00 0.00 58 1009.3
20260509175546 69 254 2.0 9.0 0.00 0.00 0.00 58 1009.4
20260509175048 69 249 1.0 4.0 0.00 0.00 0.00 58 1009.4
20260509174546 69 242 1.0 2.0 0.00 0.00 0.00 63 1009.4
20260509174046 68 159 1.0 2.0 0.00 0.00 0.00 59 1009.5
20260509173546 68 271 1.0 3.0 0.00 0.00 0.00 59 1009.7
20260509173048 68 328 2.0 6.0 0.00 0.00 0.00 62 1009.7
20260509172546 68 306 2.0 5.0 0.00 0.00 0.00 60 1009.8
20260509172046 67 279 2.0 7.0 0.00 0.00 0.00 60 1009.9
20260509171546 67 179 3.0 7.0 0.00 0.00 0.00 60 1009.9
20260509171046 67 227 3.0 8.0 0.00 0.00 0.00 59 1009.9
20260509170546 68 252 3.0 8.0 0.00 0.00 0.00 57 1009.8
20260509170046 69 255 4.0 5.0 0.00 0.00 0.00 58 1009.7
20260509165546 68 190 6.0 11.0 0.00 0.00 0.00 57 1009.7
20260509165048 69 165 5.0 12.0 0.00 0.00 0.00 60 1009.7
20260509164546 68 207 4.0 10.0 0.00 0.00 0.00 59 1009.7
20260509164046 68 198 5.0 10.0 0.00 0.00 0.00 59 1009.8
20260509163546 68 216 5.0 10.0 0.00 0.00 0.00 59 1009.8
20260509163048 67 176 4.0 9.0 0.00 0.00 0.00 60 1009.9
20260509162546 67 244 3.0 13.0 0.00 0.00 0.00 59 1010.0
20260509162046 67 151 2.0 8.0 0.00 0.00 0.00 62 1010.0
20260509161546 66 285 2.0 4.0 0.00 0.00 0.00 61 1010.0
20260509161046 65 175 2.0 7.0 0.00 0.00 0.00 61 1010.0
20260509160546 65 288 3.0 7.0 0.00 0.00 0.00 62 1010.2
20260509160046 65 244 2.0 9.0 0.00 0.00 0.00 62 1010.2
20260509155546 65 234 3.0 4.0 0.00 0.00 0.00 60 1010.1
20260509155048 66 178 5.0 10.0 0.00 0.00 0.00 59 1010.2
20260509154546 67 227 5.0 12.0 0.00 0.00 0.00 58 1010.0
20260509154046 66 194 3.0 13.0 0.00 0.00 0.00 58 1010.0
20260509153546 65 239 5.0 8.0 0.00 0.00 0.00 60 1010.2
20260509153046 65 188 6.0 15.0 0.00 0.00 0.00 60 1010.3
20260509152546 66 207 6.0 10.0 0.00 0.00 0.00 59 1010.3
20260509152046 66 171 7.0 13.0 0.00 0.00 0.00 57 1010.4
20260509151546 67 197 7.0 14.0 0.00 0.00 0.00 57 1010.3
20260509151048 66 171 4.0 11.0 0.00 0.00 0.00 58 1010.2
20260509150546 65 175 4.0 7.0 0.00 0.00 0.00 61 1010.3
20260509150046 65 203 4.0 10.0 0.00 0.00 0.00 57 1010.3
20260509145546 64 161 3.0 6.0 0.00 0.00 0.00 61 1010.2
20260509145046 64 245 4.0 10.0 0.00 0.00 0.00 59 1010.2
20260509144546 63 214 5.0 12.0 0.00 0.00 0.00 61 1010.5
20260509144046 64 185 5.0 13.0 0.00 0.00 0.00 59 1010.4
20260509143546 63 176 5.0 8.0 0.00 0.00 0.00 60 1010.4
20260509143048 63 169 6.0 12.0 0.00 0.00 0.00 62 1010.6
20260509142546 63 162 5.0 11.0 0.00 0.00 0.00 61 1010.6
20260509142046 62 165 3.0 9.0 0.00 0.00 0.00 65 1010.8
20260509141546 62 241 4.0 10.0 0.00 0.00 0.00 64 1010.9
20260509141046 61 169 4.0 12.0 0.00 0.00 0.00 62 1010.9
20260509140546 60 207 4.0 9.0 0.00 0.00 0.00 66 1011.0
20260509140046 60 215 4.0 7.0 0.00 0.00 0.00 64 1011.0
20260509135546 60 192 5.0 8.0 0.00 0.00 0.00 63 1010.9
20260509135048 59 192 5.0 12.0 0.00 0.00 0.00 63 1010.9
20260509134546 59 175 4.0 9.0 0.00 0.00 0.00 64 1011.0
20260509134046 59 181 4.0 8.0 0.00 0.00 0.00 65 1010.9
20260509133546 59 196 5.0 11.0 0.00 0.00 0.00 63 1010.9
20260509133046 58 174 4.0 9.0 0.00 0.00 0.00 63 1010.9
20260509132546 58 192 4.0 8.0 0.00 0.00 0.00 66 1010.9
20260509132046 58 133 6.0 10.0 0.00 0.00 0.00 64 1010.9
20260509131546 58 182 6.0 13.0 0.00 0.00 0.00 64 1010.9
20260509131048 57 169 4.0 10.0 0.00 0.00 0.00 66 1010.9
20260509130546 57 206 5.0 8.0 0.00 0.00 0.00 66 1011.0
20260509130046 57 195 5.0 8.0 0.00 0.00 0.00 67 1011.0
20260509125546 56 202 5.0 9.0 0.00 0.00 0.00 67 1011.1
20260509125046 56 194 4.0 7.0 0.00 0.00 0.00 67 1011.1
20260509124546 56 168 4.0 6.0 0.00 0.00 0.00 66 1011.1
20260509124046 55 182 3.0 6.0 0.00 0.00 0.00 67 1011.2
20260509123546 55 157 4.0 8.0 0.00 0.00 0.00 66 1011.2
20260509123048 55 192 4.0 7.0 0.00 0.00 0.00 66 1011.1
20260509122546 55 175 4.0 10.0 0.00 0.00 0.00 66 1011.1
20260509122046 55 196 4.0 7.0 0.00 0.00 0.00 66 1011.1
20260509121546 55 188 4.0 7.0 0.00 0.00 0.00 65 1011.2
20260509121049 55 178 3.0 6.0 0.00 0.00 0.00 66 1011.2
20260509120546 55 202 3.0 8.0 0.00 0.00 0.00 67 1011.2
20260509120046 54 180 3.0 7.0 0.00 0.00 0.00 66 1011.2
20260509115546 54 163 2.0 5.0 0.00 0.00 0.00 66 1011.1
20260509115048 54 183 3.0 6.0 0.00 0.00 0.00 67 1011.1
20260509114546 54 183 3.0 6.0 0.00 0.00 0.00 67 1011.0
20260509114046 54 166 2.0 5.0 0.00 0.00 0.00 67 1011.0
20260509113546 54 181 2.0 6.0 0.00 0.00 0.00 67 1011.0
20260509113048 54 183 2.0 4.0 0.00 0.00 0.00 69 1010.9
20260509112547 53 191 2.0 5.0 0.00 0.00 0.00 68 1010.9
20260509112046 53 190 3.0 5.0 0.00 0.00 0.00 69 1010.8
20260509111546 53 192 3.0 6.0 0.00 0.00 0.00 68 1010.9
20260509111047 53 167 3.0 6.0 0.00 0.00 0.00 69 1010.8
20260509110547 53 182 3.0 7.0 0.00 0.00 0.00 68 1010.9
20260509110046 53 194 3.0 5.0 0.00 0.00 0.00 70 1010.9
20260509105547 53 170 2.0 6.0 0.00 0.00 0.00 69 1010.8
20260509105049 52 157 1.0 3.0 0.00 0.00 0.00 70 1010.8
20260509104547 52 147 1.0 2.0 0.00 0.00 0.00 71 1010.8
20260509104047 52 144 1.0 4.0 0.00 0.00 0.00 72 1010.8
20260509103547 52 138 1.0 2.0 0.00 0.00 0.00 74 1010.7
20260509103047 52 134 0.0 2.0 0.00 0.00 0.00 71 1010.7
20260509102547 52 167 0.0 3.0 0.00 0.00 0.00 71 1010.7
20260509102047 52 167 0.0 3.0 0.00 0.00 0.00 69 1010.8
20260509101547 52 167 0.0 3.0 0.00 0.00 0.00 69 1010.8
20260509101049 53 167 0.0 2.0 0.00 0.00 0.00 68 1010.6
20260509100547 53 237 0.0 2.0 0.00 0.00 0.00 67 1010.6
20260509100047 53 231 0.0 2.0 0.00 0.00 0.00 66 1010.7
20260509095547 53 240 0.0 2.0 0.00 0.00 0.00 66 1010.6
20260509095047 53 243 1.0 3.0 0.00 0.00 0.00 66 1010.8
20260509094547 53 223 1.0 2.0 0.00 0.00 0.00 64 1010.8
20260509094047 53 185 1.0 3.0 0.00 0.00 0.00 65 1010.8
20260509093547 53 188 2.0 2.0 0.00 0.00 0.00 64 1010.8
20260509093049 53 205 2.0 4.0 0.00 0.00 0.00 64 1010.7
20260509092547 53 179 2.0 5.0 0.00 0.00 0.00 64 1010.7
20260509092047 54 182 2.0 4.0 0.00 0.00 0.00 64 1010.7
20260509091547 54 183 2.0 6.0 0.00 0.00 0.00 63 1010.8
20260509091047 54 184 3.0 6.0 0.00 0.00 0.00 63 1010.9
20260509090547 54 190 3.0 6.0 0.00 0.00 0.00 63 1011.0
20260509090047 54 183 3.0 6.0 0.00 0.00 0.00 64 1011.1
20260509085547 54 170 2.0 4.0 0.00 0.00 0.00 64 1011.1
20260509085049 54 176 2.0 6.0 0.00 0.00 0.00 63 1011.1
20260509084547 54 155 2.0 5.0 0.00 0.00 0.00 64 1011.2
20260509084047 54 169 2.0 4.0 0.00 0.00 0.00 64 1011.2
20260509083547 54 181 2.0 5.0 0.00 0.00 0.00 63 1011.2
20260509083047 54 194 3.0 5.0 0.00 0.00 0.00 63 1011.2
20260509082547 54 182 3.0 5.0 0.00 0.00 0.00 63 1011.3
20260509082047 54 190 3.0 5.0 0.00 0.00 0.00 64 1011.3
20260509081547 54 167 3.0 6.0 0.00 0.00 0.00 64 1011.4
20260509081049 53 174 2.0 4.0 0.00 0.00 0.00 64 1011.4
20260509080547 53 182 2.0 5.0 0.00 0.00 0.00 64 1011.4
20260509080047 53 157 2.0 5.0 0.00 0.00 0.00 64 1011.4
20260509075547 53 161 2.0 7.0 0.00 0.00 0.00 64 1011.4
20260509075047 53 170 3.0 5.0 0.00 0.00 0.00 64 1011.6
20260509074547 53 171 4.0 8.0 0.00 0.00 0.00 63 1011.5
20260509074047 53 162 3.0 7.0 0.00 0.00 0.00 64 1011.5
20260509073547 53 179 2.0 4.0 0.00 0.00 0.00 64 1011.6
20260509073049 53 153 2.0 4.0 0.00 0.00 0.00 63 1011.6
20260509072547 53 150 2.0 5.0 0.00 0.00 0.00 63 1011.6
20260509072047 54 158 2.0 5.0 0.00 0.00 0.00 63 1011.4
20260509071547 54 180 2.0 5.0 0.00 0.00 0.00 62 1011.4
20260509071047 54 169 2.0 4.0 0.00 0.00 0.00 61 1011.4
20260509070547 54 166 2.0 5.0 0.00 0.00 0.00 61 1011.4
20260509070047 54 175 2.0 4.0 0.00 0.00 0.00 61 1011.5
20260509065547 54 190 2.0 4.0 0.00 0.00 0.00 61 1011.4
20260509065049 54 184 2.0 5.0 0.00 0.00 0.00 60 1011.5
20260509064547 54 196 3.0 5.0 0.00 0.00 0.00 61 1011.4
20260509064047 54 181 3.0 5.0 0.00 0.00 0.00 62 1011.5
20260509063547 54 193 3.0 6.0 0.00 0.00 0.00 61 1011.5
20260509063047 54 146 3.0 7.0 0.00 0.00 0.00 62 1011.5
20260509062547 54 172 2.0 6.0 0.00 0.00 0.00 61 1011.6
20260509062047 53 194 1.0 6.0 0.00 0.00 0.00 63 1011.7
20260509061547 53 153 1.0 3.0 0.00 0.00 0.00 64 1011.8
20260509061049 53 155 2.0 3.0 0.00 0.00 0.00 63 1011.8
20260509060547 53 145 2.0 5.0 0.00 0.00 0.00 61 1011.8
20260509060047 54 164 2.0 4.0 0.00 0.00 0.00 60 1011.9
20260509055547 54 186 2.0 4.0 0.00 0.00 0.00 60 1011.9
20260509055049 54 175 2.0 6.0 0.00 0.00 0.00 61 1011.9
20260509054547 54 168 2.0 6.0 0.00 0.00 0.00 60 1011.9
20260509054047 54 180 2.0 4.0 0.00 0.00 0.00 61 1012.0
20260509053547 54 188 2.0 5.0 0.00 0.00 0.00 61 1011.9
20260509053047 53 194 2.0 4.0 0.00 0.00 0.00 61 1012.0
20260509052547 53 191 2.0 4.0 0.00 0.00 0.00 61 1012.0
20260509052047 54 171 1.0 3.0 0.00 0.00 0.00 61 1012.1
20260509051547 53 186 1.0 3.0 0.00 0.00 0.00 62 1012.0
20260509051049 52 195 1.0 2.0 0.00 0.00 0.00 64 1012.0
20260509050547 52 248 1.0 2.0 0.00 0.00 0.00 64 1012.0
20260509050047 52 240 0.0 2.0 0.00 0.00 0.00 63 1012.0
20260509045547 52 157 0.0 2.0 0.00 0.00 0.00 62 1012.0
20260509045047 53 194 1.0 4.0 0.00 0.00 0.00 62 1012.0
20260509044547 53 214 2.0 4.0 0.00 0.00 0.00 62 1012.0
20260509044047 54 208 2.0 3.0 0.00 0.00 0.00 60 1011.9
20260509043547 54 180 2.0 6.0 0.00 0.00 0.00 60 1011.9
20260509043049 53 215 2.0 5.0 0.00 0.00 0.00 60 1012.0
20260509042547 53 212 2.0 6.0 0.00 0.00 0.00 61 1012.0
20260509042047 53 154 2.0 4.0 0.00 0.00 0.00 60 1011.9
20260509041547 54 173 2.0 4.0 0.00 0.00 0.00 59 1011.9
20260509041047 54 192 3.0 4.0 0.00 0.00 0.00 59 1012.0
20260509040547 54 144 3.0 6.0 0.00 0.00 0.00 59 1012.0
20260509040047 55 164 3.0 5.0 0.00 0.00 0.00 59 1012.1
20260509035547 55 152 3.0 5.0 0.00 0.00 0.00 59 1012.0
20260509035049 55 182 3.0 5.0 0.00 0.00 0.00 59 1012.1
20260509034547 55 161 3.0 5.0 0.00 0.00 0.00 58 1012.0
20260509034047 55 172 3.0 6.0 0.00 0.00 0.00 57 1012.1